Effective Sunday, March 17, 2024, the National Weather Service National Data Buoy Center will discontinue its Dial-A-Buoy Interactive Voice Response system. For more information, see Service Change Notice 24-06 (PDF).

Station CRVA2 - 9454050 - Cordova, AK Image indicating link to RSS feed of recent meteorological observations for station CRVA2


Conditions at CRVA2 as of
(10:42 pm AKST on 02/28/2024)
0742 GMT on 02/29/2024:
     

Click on the graph icon in the table below to see a time series plot of the last five days of that observation.

5-day plot - Wind Direction Wind Direction (WDIR):NNE ( 30 deg true )
5-day plot - Wind Speed Wind Speed (WSPD): 9.9 kts
5-day plot - Wind Gust Wind Gust (GST): 21.0 kts
5-day plot - Atmospheric Pressure Atmospheric Pressure (PRES):29.10 in
5-day plot - Air Temperature Air Temperature (ATMP): 22.8 °F
5-day plot - Water Temperature Water Temperature (WTMP): 37.8 °F
5-day plot - Ice Accretion Ice Accretion (ICE): 0.08 in per hour
5-day plot - Wind Chill Wind Chill (CHILL): 11.5 °F
5-day plot - Wind Speed at 10 Meters Wind Speed at 10 meters (WSPD10M): 9.7 kts
5-day plot - Wind Speed at 20 Meters Wind Speed at 20 meters (WSPD20M): 11.7 kts
5-day plot -  Wind Speed, Wind Gust and Atmospheric Pressure Combined plot of Wind Speed, Gust, and Air Pressure
NOS Water Level Observation Network Water Level
Previous observations
TIME
(AKST)
5-day plot - Wind Direction
WDIR
 
5-day plot - Wind Speed
WSPD
kts
5-day plot - Wind Gust
GST
kts
5-day plot - Wave Height
WVHT
ft
5-day plot - Dominant Wave Period
DPD
sec
5-day plot - Average Wave Period
APD
sec
5-day plot - Mean Wave Direction
MWD
 
5-day plot - Atmospheric Pressure
PRES
in
5-day plot - Pressure Tendency
PTDY
in
5-day plot - Air Temperature
ATMP
°F
5-day plot - Water Temperature
WTMP
°F
5-day plot - Dew Point
DEWP
°F
5-day plot - Salinity
SAL
psu
5-day plot - Visibility
VIS
nmi
5-day plot - Tide (above MLLW)
TIDE
ft
2024-02-28 10:36 pmNNE 12.0 19.0----29.10- 23.0 37.8----
2024-02-28 10:30 pmENE 9.9 24.1----29.10- 22.8 37.8----
2024-02-28 10:24 pmNNE 9.9 22.0----29.10- 23.0 37.8----
2024-02-28 10:18 pm NE 8.9 19.0----29.10- 23.4 37.8----
2024-02-28 10:12 pmNNE 17.1 27.0----29.10- 23.4 37.8----
2024-02-28 10:06 pm NE 11.1 25.1----29.10- 23.2 37.8----
2024-02-28 10:00 pm NE 9.9 25.1----29.10+0.02 23.4 37.8----
2024-02-28 09:54 pm NE 12.0 22.0----29.10- 23.0 37.6----
2024-02-28 09:48 pm NE 8.0 18.1----29.10- 23.2 37.8----
2024-02-28 09:42 pm NE 13.0 21.0----29.10- 22.8 37.8----
2024-02-28 09:36 pm NE 8.0 15.9----29.10- 22.5 37.8----
2024-02-28 09:30 pmENE 7.0 12.0----29.10- 21.7 37.8----
2024-02-28 09:24 pmENE 7.0 15.0----29.10- 21.6 37.8----
2024-02-28 09:18 pmENE 8.0 15.0----29.10- 22.3 37.8----
2024-02-28 09:12 pm NE 7.0 12.0------------
2024-02-28 09:06 pm NE 11.1 14.0----29.10- 22.3 37.8----
2024-02-28 09:00 pm NE 11.1 22.9----29.10+0.02 22.6 37.8----
2024-02-28 08:48 pm NE 11.1 18.1----29.10- 23.0 37.8----
2024-02-28 08:42 pm NE 19.0 28.9----29.10- 23.2 37.8----
2024-02-28 08:36 pm NE 14.0 24.1----29.09- 23.4 37.9----
2024-02-28 08:30 pm NE 15.0 22.9----29.09- 24.1 37.9----
2024-02-28 08:18 pm NE 15.0 22.9----29.09- 24.8 38.1----
2024-02-28 08:12 pm NE 8.9 22.0----29.09- 24.3 38.1----
2024-02-28 08:06 pm NE 8.9 15.9----29.08- 24.1 38.1----
2024-02-28 08:00 pm NE 12.0 21.0----29.08+0.00 23.9 38.3----
2024-02-28 07:54 pmENE 12.0 15.9----29.08- 23.7 38.3----
2024-02-28 07:48 pmNNE 14.0 26.0----29.09- 24.3 38.3----
2024-02-28 07:42 pm NE 15.0 26.0----29.09- 24.1 38.3----
2024-02-28 07:36 pm NE 12.0 22.0----29.09- 23.7 38.5----
2024-02-28 07:30 pm NE 18.1 31.1----29.09- 23.7 38.5----
2024-02-28 07:24 pm NE 14.0 24.1----29.08- 24.1 38.7----
2024-02-28 07:18 pmENE 14.0 28.9----29.08- 23.9 38.7----
2024-02-28 07:12 pm NE 11.1 19.0----29.09- 24.1 38.7----
2024-02-28 07:06 pm NE 14.0 28.0----29.09- 23.9 38.7----
2024-02-28 07:00 pmNNE 15.0 22.9----29.08+0.00 24.1 38.8----
2024-02-28 06:54 pm NE 18.1 22.9----29.08- 23.5 38.8----
2024-02-28 06:48 pm NE 15.9 24.1----29.09- 23.9 38.8----
2024-02-28 06:42 pm NE 20.0 34.0----29.08- 24.1 38.8----
2024-02-28 06:36 pm NE 19.0 26.0----29.08- 23.9 38.8----
2024-02-28 06:30 pm NE 18.1 28.0----29.08- 23.7 38.8----
2024-02-28 06:24 pmNNE 14.0 22.9----29.08- 24.4 38.8----
2024-02-28 06:18 pm NE 15.0 25.1----29.08- 24.1 38.8----
2024-02-28 06:12 pmNNE 20.0 28.9----29.08- 24.3 39.0----
2024-02-28 06:06 pmNNE 13.0 28.0----29.08- 24.1 39.0----
2024-02-28 06:00 pmNNE 15.0 24.1----29.08-0.02 24.4 39.0----
2024-02-28 05:54 pm NE 13.0 22.0----29.08- 24.3 39.0----
2024-02-28 05:48 pm NE 9.9 21.0----29.08- 24.4 39.0----
2024-02-28 05:42 pm NE 17.1 35.0----29.08- 24.4 39.0----
2024-02-28 05:36 pmNNE 19.0 28.9----29.08- 23.9 39.0----
2024-02-28 05:30 pm NE 12.0 25.1----29.08- 24.4 39.0----
2024-02-28 05:24 pmNNE 15.9 25.1----29.08- 23.7 39.2----
2024-02-28 05:18 pm NE 13.0 29.9----29.08- 23.9 39.2----
2024-02-28 05:12 pm NE 15.9 29.9----29.08- 24.4 39.2----
2024-02-28 05:06 pmNNE 17.1 24.1----29.08- 24.1 39.0----
2024-02-28 05:00 pmNNE 20.0 28.0----29.08-0.01 23.7 39.2----
2024-02-28 04:54 pmNNE 17.1 39.0----29.08- 24.4 39.4----
2024-02-28 04:48 pm NE 18.1 26.0----29.08- 24.1 39.4----
2024-02-28 04:42 pm NE 15.0 28.0----29.08- 24.4 39.9----
2024-02-28 04:36 pmENE 12.0 28.9----29.08- 24.3 39.2----
2024-02-28 04:30 pm NE 13.0 27.0----29.08- 24.4 39.4----
2024-02-28 04:24 pm NE 19.0 34.0----29.09- 24.4 39.4----
2024-02-28 04:18 pmENE 8.9 22.9----29.08- 24.4 39.2----
2024-02-28 04:12 pm N 19.0 26.0----29.09- 23.7 39.4----
2024-02-28 04:06 pmNNE 15.9 25.1----29.09- 24.4 39.0----
2024-02-28 04:00 pmNNE 21.0 27.0----29.09-0.02 24.3 39.2----
2024-02-28 03:54 pmNNE 14.0 26.0----29.09- 24.1 39.0----
2024-02-28 03:48 pmNNE 19.0 28.0----29.09- 24.1 39.0----
2024-02-28 03:42 pmNNE 24.1 34.0----29.09- 23.9 39.2----
2024-02-28 03:36 pm NE 14.0 24.1----29.09- 24.6 39.2----
2024-02-28 03:30 pmNNE 17.1 28.9----29.09- 23.9 39.2----
2024-02-28 03:24 pm NE 13.0 28.9----29.09- 25.0 39.2----
2024-02-28 03:18 pmNNE 20.0 29.9----29.09- 24.8 39.2----
2024-02-28 03:12 pm NE 20.0 29.9----29.09- 24.8 39.2----
2024-02-28 03:06 pmNNE 15.9 27.0----29.09- 25.3 39.2----
2024-02-28 03:00 pmNNE 19.0 28.0----29.10+0.00 25.5 39.2----
2024-02-28 02:54 pm NE 15.0 28.9----29.10- 25.2 39.4----
2024-02-28 02:48 pm NE 15.0 28.9------ 25.7 39.4----
2024-02-28 02:42 pm NE 14.0 27.0------ 25.3 39.4----
2024-02-28 02:36 pmNNE 21.0 31.1------ 25.7 39.4----
2024-02-28 02:30 pm-------29.09-- 39.4----
2024-02-28 02:24 pm-------29.09-- 39.4----
2024-02-28 02:18 pm-------29.10-- 39.4----
2024-02-28 02:12 pm NE 15.0 27.0------ 25.3 39.4----
2024-02-28 02:06 pmNNE 15.9 26.0------ 26.1 39.4----
2024-02-28 02:00 pmNNE 15.9 27.0----29.10+0.00 25.7 39.4----
2024-02-28 01:54 pmNNE 15.0 28.0----29.10- 26.4 39.2----
2024-02-28 01:48 pm NE 15.0 31.1----29.10- 25.9 39.0----
2024-02-28 01:42 pmNNE 19.0 29.9----29.10- 25.3 39.0----
2024-02-28 01:36 pmNNE 20.0 26.0----29.10- 26.2 39.0----
2024-02-28 01:30 pmNNE 17.1 24.1----29.10- 26.1 39.0----
2024-02-28 01:24 pmNNE 15.9 31.1----29.10- 25.5 38.8----
2024-02-28 01:18 pmNNE 22.9 28.9----29.10- 25.7 38.8----
2024-02-28 01:12 pmNNE 21.0 28.9----29.10- 25.7 38.8----
2024-02-28 01:06 pmNNE 15.0 29.9----29.10- 26.4 38.8----
2024-02-28 01:00 pmNNE 22.9 29.9----29.10+0.01 25.7 38.8----
2024-02-28 12:54 pm NE 17.1 22.9----29.10- 26.1 38.8----
2024-02-28 12:48 pmNNE 18.1 24.1----29.10- 26.1 38.8----
2024-02-28 12:42 pmNNE 20.0 28.0----29.10- 26.6 38.8----
2024-02-28 12:36 pmNNE 15.9 22.9----29.10- 26.4 38.7----
2024-02-28 12:30 pmNNE 18.1 26.0----29.10- 26.1 38.7----
2024-02-28 12:24 pmNNE 15.0 24.1----29.10- 26.8 38.7----
2024-02-28 12:18 pmNNE 20.0 27.0----29.10-------
2024-02-28 12:12 pmNNE 17.1 26.0----29.10- 26.4 38.8----
2024-02-28 12:06 pmNNE 21.0 31.1----29.10- 26.1 38.8----
2024-02-28 12:00 pmNNE 15.9 22.9----29.10+0.02 26.2 38.8----
2024-02-28 11:54 am NE 12.0 25.1----29.10- 26.2 39.0----
2024-02-28 11:48 am NE 15.0 22.9----29.10- 26.2 38.8----
2024-02-28 11:42 amNNE 20.0 31.1----29.10- 26.6 38.7----
2024-02-28 11:36 am N 20.0 26.0----29.10- 25.7 38.5----
2024-02-28 11:30 amNNE 15.9 28.0----29.10- 25.9 38.5----
2024-02-28 11:24 amNNE 15.0 28.0----29.10- 25.9 38.5----
2024-02-28 11:18 amNNE 17.1 27.0----29.10- 25.5 38.3----
2024-02-28 11:12 amNNE 11.1 26.0----29.10- 25.7 38.3----
2024-02-28 11:06 amNNE 15.0 22.0----29.10- 26.1 37.9----
2024-02-28 11:00 am NE 15.0 25.1----29.10+0.02 25.5 38.5----
2024-02-28 10:54 am NE 15.0 28.0----29.10- 25.5 38.3----
2024-02-28 10:48 amNNE 17.1 28.9----29.10- 25.9 38.3----
2024-02-28 10:42 am NE 11.1 22.0----29.10- 25.5 38.3----
2024-02-28 10:36 am NE 13.0 24.1----29.10- 25.5 38.1----
2024-02-28 10:30 amNNE 19.0 27.0----29.10- 25.3 38.1----
2024-02-28 10:24 amENE 12.0 20.0----29.10- 25.7 38.1----
2024-02-28 10:18 am NE 12.0 19.0----29.09- 25.9 38.1----
2024-02-28 10:12 amNNE 15.0 22.0----29.09- 25.5 38.1----
2024-02-28 10:06 am NE 13.0 21.0----29.09- 25.2 37.9----
2024-02-28 10:00 am NE 8.0 13.0----29.09+0.03 25.2 37.9----
2024-02-28 09:54 am NE 9.9 22.9----29.09- 25.2 38.1----
2024-02-28 09:48 am NE 8.0 17.1----29.09- 24.8 37.9----
2024-02-28 09:42 am NE 9.9 14.0----29.09- 25.0 37.9----
2024-02-28 09:36 am NE 11.1 21.0----29.09- 25.0 37.9----
2024-02-28 09:30 am NE 7.0 14.0----29.09- 25.0 38.1----
2024-02-28 09:24 am NE 8.9 21.0----29.08- 25.5 37.9----
2024-02-28 09:18 am N 14.0 18.1----29.09- 25.7 37.9----
2024-02-28 09:12 amENE 4.1 7.0----29.08- 24.6 38.1----
2024-02-28 09:06 am NE 8.0 15.0----29.08- 25.5 38.1----
2024-02-28 09:00 amENE 8.0 13.0----29.08+0.02 25.5 38.1----
2024-02-28 08:54 am NE 7.0 17.1----29.08- 25.2 38.1----
2024-02-28 08:48 am NE 9.9 17.1----29.08- 25.3 38.1----
2024-02-28 08:42 am NE 8.0 19.0----29.08- 25.5 38.1----
2024-02-28 08:36 amENE 11.1 15.0----29.08- 25.5 38.1----
2024-02-28 08:30 amNNE 15.0 22.9----29.08- 25.9 38.1----
2024-02-28 08:24 am NE 8.9 22.9----29.08- 25.7 38.1----
2024-02-28 08:18 am NE 12.0 20.0----29.08- 25.7 38.1----
2024-02-28 08:12 amNNE 13.0 19.0----29.08- 25.7 38.1----
2024-02-28 08:06 am NE 8.9 21.0----29.08- 25.3 38.3----
2024-02-28 08:00 am NE 12.0 17.1----29.08+0.01 25.9 38.3----
2024-02-28 07:54 amNNE 9.9 19.0----29.08- 25.9 38.3----
2024-02-28 07:48 am NE 9.9 24.1----29.08- 26.1 38.3----
2024-02-28 07:42 am NE 8.0 19.0----29.08- 25.7 38.5----
2024-02-28 07:36 am NE 8.0 15.0----29.07- 26.1 38.5----
2024-02-28 07:30 am NE 6.0 14.0----29.07- 25.9 38.5----
2024-02-28 07:24 am NE 9.9 21.0----29.07- 26.1 38.5----
2024-02-28 07:18 am NE 14.0 22.9----29.07- 26.1 38.7----
2024-02-28 07:12 amENE 8.0 15.0----29.07- 25.3 38.7----
2024-02-28 07:06 am NE 4.1 9.9----29.06- 26.4 38.8----
2024-02-28 07:00 am E 6.0 12.0----29.06+0.00 25.7 38.8----
2024-02-28 06:54 am NE 5.1 7.0----29.06- 25.2 38.8----
2024-02-28 06:48 am E 6.0 8.9----29.06- 25.5 39.0----
2024-02-28 06:42 am NE 4.1 15.0----29.06- 23.7 39.0----
2024-02-28 06:36 amENE 7.0 14.0----29.06- 26.2 39.2----
2024-02-28 06:30 amENE 4.1 9.9----29.06- 25.5 39.2----
2024-02-28 06:24 am NE 7.0 12.0----29.06- 26.1 39.4----
2024-02-28 06:18 am E 4.1 8.0----29.06- 25.9 39.4----
2024-02-28 06:12 am NE 6.0 12.0----29.06- 26.1 39.6----
2024-02-28 06:06 am NE 6.0 8.9----29.06- 26.1 39.6----
2024-02-28 06:00 am E 5.1 7.0----29.06+0.00 25.2 39.6----
2024-02-28 05:54 amENE 6.0 15.9----29.06- 26.4 39.6----
2024-02-28 05:48 am NE 9.9 14.0----29.06- 26.8 39.6----
2024-02-28 05:42 am NE 8.0 15.9----29.06- 26.2 39.7----
2024-02-28 05:36 amENE 5.1 8.0----29.06- 26.1 39.7----
2024-02-28 05:30 amENE 6.0 15.9----29.06- 26.1 39.9----
2024-02-28 05:24 am NE 7.0 9.9----29.06- 26.4 39.9----
2024-02-28 05:18 amENE 5.1 8.0----29.06- 25.3 39.9----
2024-02-28 05:12 am NE 5.1 8.0----29.06- 26.4 39.9----
2024-02-28 05:06 amENE 6.0 8.0----29.06- 25.7 40.1----
2024-02-28 05:00 am E 5.1 8.0----29.06+0.00 26.2 40.1----
2024-02-28 04:54 amENE 2.9 7.0----29.06- 26.6 40.1----
2024-02-28 04:48 am E 2.9 6.0----29.07- 25.7 40.5----
2024-02-28 04:42 amENE 2.9 5.1----29.07- 26.2 40.6----
2024-02-28 04:36 am NE 6.0 8.9----29.06- 27.3 40.6----
2024-02-28 04:30 amNNE 5.1 12.0----29.06- 27.0 40.5----
2024-02-28 04:24 amENE 5.1 8.0----29.06- 26.2 40.5----
2024-02-28 04:18 am E 4.1 6.0----29.06- 24.6 40.3----
2024-02-28 04:12 am E 1.0 4.1----29.06- 26.4 40.3----
2024-02-28 04:06 am E 1.9 4.1----29.07- 25.9 40.1----
2024-02-28 04:00 am NE 4.1 8.0----29.07+0.02 27.9 40.3----
2024-02-28 03:54 am E 4.1 6.0----29.07- 26.2 40.1----
2024-02-28 03:48 amENE 2.9 6.0----29.06- 26.4 40.3----
2024-02-28 03:42 amENE 4.1 8.9----29.06- 27.1 39.9----
2024-02-28 03:36 am NE 8.0 14.0----29.06- 27.7 39.7----
2024-02-28 03:30 amENE 4.1 8.0----29.07- 26.8 39.9----
2024-02-28 03:24 am E 5.1 11.1----29.07- 27.1 39.9----
2024-02-28 03:18 am NE 8.0 15.0----29.07- 28.2 39.9----
2024-02-28 03:12 am NE 5.1 8.0----29.07- 27.9 39.9----
2024-02-28 03:06 am E 5.1 11.1----29.06- 27.7 40.1----
2024-02-28 03:00 am E 7.0 12.0----29.06+0.01 28.0 39.7----
2024-02-28 02:54 amNNE 9.9 14.0----29.06- 28.8 39.7----
2024-02-28 02:48 am NE 7.0 11.1----29.06-------
2024-02-28 02:42 amENE 7.0 15.0----29.06- 28.9 39.7----
2024-02-28 02:36 am NE 9.9 14.0----29.06- 29.7 39.7----
2024-02-28 02:30 am NE 11.1 14.0----29.06- 29.1 39.7----
2024-02-28 02:24 amENE 6.0 21.0----29.06- 29.3 39.7----
2024-02-28 02:18 amENE 8.9 12.0----29.06- 29.3 39.7----
2024-02-28 02:12 am NE 8.9 18.1----29.05-- 39.7----
2024-02-28 02:06 amNNE 9.9 26.0----29.06- 30.2 39.7----
2024-02-28 02:00 amENE 8.0 11.1----29.06+0.00 29.7 39.6----
2024-02-28 01:48 amENE 8.0 13.0----29.05- 29.7 39.6----
2024-02-28 01:42 am NE 6.0 15.0----29.05- 29.3 39.6----
2024-02-28 01:36 amENE 5.1 9.9----29.05- 29.3 39.6----
2024-02-28 01:30 amENE 8.0 14.0----29.05- 30.0 39.6----
2024-02-28 01:24 am NE 7.0 13.0----29.05- 29.5 39.6----
2024-02-28 01:18 am NE 8.9 15.0----29.05- 29.7 39.4----
2024-02-28 01:12 amNNE 11.1 17.1----29.05- 30.0 39.4----
2024-02-28 01:06 amENE 5.1 15.0----29.05- 29.5 39.4----
2024-02-28 01:00 amNNE 6.0 19.0----29.05+0.00 29.8 39.4----
2024-02-28 12:54 amENE 7.0 15.9----29.05- 29.5 39.4----
2024-02-28 12:48 amENE 4.1 9.9----29.05- 28.9 39.4----
2024-02-28 12:36 am NE 9.9 19.0----29.05- 29.7 39.6----
2024-02-28 12:30 am NE 9.9 14.0----29.05- 30.0 39.4----
2024-02-28 12:18 amNNE 13.0 21.0----29.05- 30.4 39.4----
2024-02-28 12:12 am NE 13.0 20.0----29.05- 30.2 39.4----
2024-02-28 12:06 am NE 8.0 18.1----29.05- 30.0 39.4----
2024-02-28 12:00 am NE 8.0 13.0----29.05+0.01 29.8 39.4----
2024-02-27 11:48 pm NE 7.0 15.0----29.05- 30.2 39.4----
2024-02-27 11:42 pm NE 8.9 13.0----29.06- 30.4 39.2----
2024-02-27 11:36 pm NE 9.9 13.0----29.05- 30.7 39.2----
2024-02-27 11:30 pmENE 7.0 8.9----29.06- 30.2 39.2----
2024-02-27 11:24 pm NE 8.9 13.0----29.05- 30.7 39.2----
2024-02-27 11:18 pmENE 8.0 14.0----29.06- 30.4 39.2----
2024-02-27 11:06 pmENE 7.0 11.1----29.05- 30.4 39.2----
2024-02-27 11:00 pm NE 1.9 6.0----29.06+0.03 29.8 39.2----
2024-02-27 10:54 pm E 1.9 6.0----29.06- 29.8 39.2----